This is the latest recevied weather packets stored in our database for station/object KI5GCD-13. If no packets are shown the sender has not sent any weather packets the latest 10 day(s).
| Time | Temp. | Humidity | Pressure | Rain* | Wind** | Luminosity | Snow |
|---|---|---|---|---|---|---|---|
| 1777394687 | 17.78° C | 90% | 1009.7 hPa | 0 mm | 0.45 m/s, 271° | - | - |
| 1777394387 | 18.33° C | 89% | 1009.7 hPa | 0 mm | 0.45 m/s, 240° | - | - |
| 1777394087 | 18.33° C | 87% | 1009.9 hPa | 0 mm | 0.89 m/s, 184° | - | - |
| 1777393787 | 18.33° C | 88% | 1010 hPa | 0 mm | 0.89 m/s, 210° | - | - |
| 1777393487 | 18.89° C | 86% | 1010.1 hPa | 0 mm | 0.45 m/s, 295° | - | - |
| 1777393188 | 18.33° C | 88% | 1010 hPa | 0 mm | 0.89 m/s, 83° | - | - |
| 1777392887 | 18.33° C | 87% | 1009.9 hPa | 0 mm | 0.45 m/s, 277° | - | - |
| 1777392587 | 17.22° C | 91% | 1010 hPa | 0 mm | 0 m/s | - | - |
| 1777392287 | 17.22° C | 91% | 1009.7 hPa | 0 mm | 0.89 m/s, 133° | - | - |
| 1777391987 | 17.78° C | 90% | 1010 hPa | 0 mm | 0.89 m/s, 152° | - | - |
| 1777391687 | 17.78° C | 91% | 1010.4 hPa | 0 mm | 0.45 m/s, 220° | - | - |
| 1777391388 | 17.78° C | 95% | 1010.1 hPa | 0 mm | 0.45 m/s, 264° | - | - |
| 1777391087 | 16.67° C | 94% | 1010.1 hPa | 0 mm | 0.89 m/s, 42° | - | - |
| 1777390787 | 16.67° C | 98% | 1010.1 hPa | 0 mm | 0 m/s | - | - |
| 1777390487 | 15.56° C | 98% | 1010.1 hPa | 13.72 mm | 0 m/s | - | - |
| 1777390187 | 15.56° C | 94% | 1010.7 hPa | 13.72 mm | 0 m/s | - | - |
| 1777389887 | 16.11° C | 87% | 1009.8 hPa | 4.57 mm | 0 m/s | - | - |
| 1777389587 | 16.67° C | 87% | 1009.7 hPa | 0 mm | 0.45 m/s, 249° | - | - |
| 1777389287 | 16.67° C | 85% | 1009.2 hPa | 0 mm | 1.34 m/s, 46° | - | - |
| 1777388987 | 17.22° C | 85% | 1009 hPa | 0 mm | 0.45 m/s, 66° | - | - |
| 1777388688 | 17.22° C | 85% | 1009.5 hPa | 0 mm | 0.45 m/s, 167° | - | - |
| 1777388387 | 16.67° C | 85% | 1009.7 hPa | 0 mm | 0 m/s | - | - |
| 1777388087 | 16.11° C | 87% | 1009.5 hPa | 0 mm | 1.34 m/s, 21° | - | - |
| 1777387788 | 16.67° C | 87% | 1009.8 hPa | 0 mm | 0.45 m/s, 289° | - | - |
| 1777387487 | 16.11° C | 87% | 1010.1 hPa | 0 mm | 0.89 m/s, 233° | - | - |
* Rain latest hour (hover to see other rain measurements)
** Current wind speed in m/s (hover to see current wind gust speed)